Thermopolis, WY

4:23 AM MST on February 07, 2016 (GMT -0700)
Thermopolis

Weather History for KTBX - March, 2013

Change the Weather History Date:

Tuesday, March 12, 2013

  Actual Average (KWRL) Record (KWRL)
Temperature  
Mean Temperature 24 °F 35 °F  
Max Temperature 33 °F 49 °F 71 °F (2007)
Min Temperature 15 °F 21 °F -2 °F (2009)
Degree Days  
Heating Degree Days 41 30  
Month to date heating degree days 386  
Since 1 July heating degree days 6387  
Cooling Degree Days 0 0  
Month to date cooling degree days 0  
Year to date cooling degree days 0  
Moisture  
Dew Point 19 °F    
Average Humidity 77    
Maximum Humidity 100    
Minimum Humidity 52    
Precipitation  
Precipitation 0.00 in 0.01 in 0.30 in (1995)
Month to date precipitation 0.15  
Year to date precipitation 0.57  
Sea Level Pressure  
Sea Level Pressure 30.21 in    
Wind  
Wind Speed 13 mph (SSE)    
Max Wind Speed 22 mph    
Max Gust Speed 22 mph    
Visibility 10 miles    
Events      
T = Trace of Precipitation, MM = Missing Value Source: NWS Daily Summary

Daily Weather History Graph

Daily Weather History Graph

Search for Another Location

Airport or City:

Trip Planner

Search our weather history database for the weather conditions in past years. The results will help you decide how hot, cold, wet, or windy it might be!

Date:

Astronomy

Mar. 12, 2013 Rise Set
Actual Time 7:29 AM MDT 7:15 PM MDT
Civil Twilight 7:01 AM MDT 7:44 PM MDT
Nautical Twilight 6:28 AM MDT 8:17 PM MDT
Astronomical Twilight 5:54 AM MDT 8:51 PM MDT
Moon 7:35 AM MDT (3/12) 8:38 PM MDT (3/12)
Length of Visible Light 12h 43m
Length of Day
11h 46m
New Moon, 1% of the Moon is Illuminated
Mar 12
New Moon
Mar 19
First Quarter
Mar 27
Full
Apr 2
Last Quarter
Apr 10
New

Hourly Weather History & Observations

Time (MDT) Temp. Windchill Dew Point Humidity Pressure Visibility Wind Dir Wind Speed Gust Speed Precip Events Conditions
12:15 AM 21.2 °F 5.2 °F 19.4 °F 93% 30.20 in - NW 21.9 mph - N/A   Overcast
12:35 AM 21.2 °F 5.2 °F 19.4 °F 93% 30.20 in - NW 21.9 mph - N/A   Overcast
12:55 AM 19.4 °F 3.2 °F 19.4 °F 100% 30.20 in - NW 20.7 mph - N/A   Overcast
1:15 AM 19.4 °F 2.8 °F 17.6 °F 93% 30.21 in - NW 21.9 mph - N/A   Overcast
1:35 AM 19.4 °F 3.6 °F 17.6 °F 93% 30.21 in - NW 19.6 mph - N/A   Overcast
1:55 AM 19.4 °F 4.5 °F 17.6 °F 93% 30.21 in - NW 17.3 mph - N/A   Overcast
2:15 AM 19.4 °F 5.0 °F 17.6 °F 93% 30.22 in - NW 16.1 mph - N/A   Overcast
2:35 AM 17.6 °F 2.7 °F 17.6 °F 100% 30.23 in - NW 16.1 mph - N/A   Overcast
2:55 AM 17.6 °F 2.7 °F 15.8 °F 93% 30.23 in - NW 16.1 mph - N/A   Overcast
3:15 AM 17.6 °F 2.7 °F 15.8 °F 93% 30.23 in - NW 16.1 mph - N/A   Overcast
3:35 AM 17.6 °F 3.7 °F 15.8 °F 93% 30.22 in - NW 13.8 mph - N/A   Overcast
3:55 AM 17.6 °F 4.3 °F 15.8 °F 93% 30.22 in - NW 12.7 mph - N/A   Overcast
4:15 AM 17.6 °F 3.2 °F 15.8 °F 93% 30.22 in - NNW 15.0 mph - N/A   Overcast
4:35 AM - - - N/A% 30.21 in - NNW 9.2 mph - N/A   Overcast
5:15 AM - - - N/A% 30.22 in - NNW 8.1 mph - N/A   Unknown
5:35 AM - - - N/A% 30.23 in - NNW 9.2 mph - N/A   Overcast
5:55 AM - - - N/A% 30.23 in - NNW 5.8 mph - N/A   Overcast
6:15 AM - - - N/A% 30.23 in - North 4.6 mph - N/A   Overcast
6:35 AM 15.8 °F 10.2 °F 14.0 °F 93% 30.24 in - North 3.5 mph - N/A   Overcast
6:55 AM 15.8 °F - 14.0 °F 93% 30.23 in - Calm Calm - N/A   Overcast
7:35 AM 15.8 °F 8.6 °F 14.0 °F 93% 30.23 in - SE 4.6 mph - N/A   Mostly Cloudy
7:55 AM 17.6 °F 7.3 °F 14.0 °F 86% 30.22 in - SE 8.1 mph - N/A   Mostly Cloudy
8:15 AM 17.6 °F 5.7 °F 15.8 °F 93% 30.22 in - SE 10.4 mph - N/A   Unknown
8:35 AM 17.6 °F 6.4 °F 15.8 °F 93% 30.22 in - SSE 9.2 mph - N/A   Unknown
8:55 AM 17.6 °F 4.3 °F 17.6 °F 100% 30.22 in - SSE 12.7 mph - N/A   Unknown
9:15 AM 19.4 °F 5.5 °F 17.6 °F 93% 30.22 in - SSE 15.0 mph - N/A   Unknown
9:35 AM 19.4 °F 7.9 °F 17.6 °F 93% 30.22 in - SSE 10.4 mph - N/A   Unknown
9:55 AM 19.4 °F 7.2 °F 17.6 °F 93% 30.22 in - SSE 11.5 mph 18.4 mph N/A   Unknown
10:15 AM 21.2 °F 8.9 °F 19.4 °F 93% 30.22 in - SSE 12.7 mph 19.6 mph N/A   Overcast
10:35 AM 21.2 °F 7.3 °F 19.4 °F 93% 30.21 in - SE 16.1 mph 21.9 mph N/A   Overcast
10:55 AM 21.2 °F 6.8 °F 19.4 °F 93% 30.21 in - SE 17.3 mph - N/A   Overcast
11:15 AM 21.2 °F 9.5 °F 19.4 °F 93% 30.23 in - SE 11.5 mph 19.6 mph N/A   Overcast
11:35 AM 23.0 °F 10.1 °F 21.2 °F 93% 30.23 in - SE 15.0 mph 20.7 mph N/A   Overcast
11:55 AM 23.0 °F 12.4 °F 21.2 °F 93% 30.23 in - SSE 10.4 mph 18.4 mph N/A   Mostly Cloudy
12:15 PM 23.0 °F 11.7 °F 21.2 °F 93% 30.23 in - SE 11.5 mph 18.4 mph N/A   Unknown
12:35 PM 23.0 °F 13.1 °F 23.0 °F 100% 30.23 in - SSE 9.2 mph - N/A   Unknown
12:55 PM 24.8 °F 16.1 °F 23.0 °F 93% 30.23 in - ESE 8.1 mph - N/A   Unknown
1:15 PM 24.8 °F 17.9 °F 21.2 °F 86% 30.23 in - SE 5.8 mph - N/A   Unknown
1:35 PM 26.6 °F 20.0 °F 21.2 °F 80% 30.22 in - SE 5.8 mph - N/A   Clear
1:55 PM 28.4 °F 23.3 °F 21.2 °F 74% 30.21 in - SSE 4.6 mph - N/A   Clear
2:15 PM 28.4 °F 22.2 °F 21.2 °F 74% 30.21 in - ESE 5.8 mph - N/A   Clear
2:35 PM 30.2 °F 25.4 °F 21.2 °F 69% 30.20 in - SSE 4.6 mph - N/A   Clear
3:15 PM 32.0 °F 26.4 °F 21.2 °F 64% 30.19 in - SE 5.8 mph - N/A   Clear
3:35 PM 32.0 °F 25.6 °F 19.4 °F 60% 30.19 in - SE 6.9 mph - N/A   Clear
4:15 PM 32.0 °F 28.7 °F 19.4 °F 60% 30.18 in 10.0 mi SE 3.5 mph - N/A   Clear
4:35 PM 32.0 °F 25.6 °F 19.4 °F 60% 30.18 in 10.0 mi SE 6.9 mph - N/A   Clear
4:55 PM 32.0 °F 26.4 °F 19.4 °F 60% 30.18 in 10.0 mi SE 5.8 mph - N/A   Clear
5:15 PM 32.0 °F 24.8 °F 17.6 °F 55% 30.18 in 10.0 mi SE 8.1 mph - N/A   Clear
5:35 PM 32.0 °F 25.6 °F 17.6 °F 55% 30.18 in 10.0 mi SE 6.9 mph - N/A   Clear
5:55 PM 32.0 °F 27.5 °F 17.6 °F 55% 30.18 in 10.0 mi SE 4.6 mph - N/A   Clear
6:15 PM 32.0 °F 26.4 °F 19.4 °F 60% 30.18 in 10.0 mi SE 5.8 mph - N/A   Scattered Clouds
6:35 PM 32.0 °F 25.6 °F 17.6 °F 55% 30.18 in 10.0 mi SE 6.9 mph - N/A   Clear
7:15 PM 33.8 °F 27.7 °F 17.6 °F 52% 30.19 in 10.0 mi SSE 6.9 mph - N/A   Clear
7:35 PM 33.8 °F 29.6 °F 17.6 °F 52% 30.20 in 10.0 mi SSE 4.6 mph - N/A   Clear
7:55 PM 33.8 °F 25.3 °F 19.4 °F 56% 30.20 in 10.0 mi SW 11.5 mph 17.3 mph N/A   Clear
8:15 PM 33.8 °F 27.0 °F 19.4 °F 56% 30.20 in 10.0 mi South 8.1 mph - N/A   Clear
8:35 PM 33.8 °F 27.0 °F 19.4 °F 56% 30.20 in 10.0 mi South 8.1 mph - N/A   Clear
8:55 PM 33.8 °F 26.4 °F 19.4 °F 56% 30.20 in 10.0 mi SSE 9.2 mph - N/A   Clear
9:15 PM 33.8 °F 28.6 °F 19.4 °F 56% 30.20 in 10.0 mi South 5.8 mph - N/A   Clear
9:35 PM 33.8 °F 24.3 °F 19.4 °F 56% 30.20 in 10.0 mi South 13.8 mph - N/A   Clear
9:55 PM 33.8 °F 24.8 °F 19.4 °F 56% 30.20 in 10.0 mi SSE 12.7 mph - N/A   Clear
10:15 PM 33.8 °F 24.3 °F 19.4 °F 56% 30.20 in 10.0 mi South 13.8 mph 20.7 mph N/A   Clear
10:35 PM 33.8 °F 24.8 °F 19.4 °F 56% 30.20 in 10.0 mi SSE 12.7 mph - N/A   Clear
10:55 PM 33.8 °F 25.3 °F 19.4 °F 56% 30.20 in 10.0 mi SSE 11.5 mph - N/A   Clear
11:15 PM 32.0 °F 24.8 °F 17.6 °F 55% 30.21 in 10.0 mi SE 8.1 mph - N/A   Clear
11:35 PM 33.8 °F 28.6 °F 19.4 °F 56% 30.21 in 10.0 mi South 5.8 mph - N/A   Clear
11:55 PM 33.8 °F 24.3 °F 21.2 °F 60% 30.20 in 10.0 mi SSW 13.8 mph - N/A   Clear